カタログに戻る

CZ-3C DEB

LostGTO
NORAD 40827·DEBRIS·🇨🇳 China

打ち上げ Oct 31, 2010 から Xichang Satellite Launch Center

Loading…

TLE

古いSource: Space-Track

元期: Aug 20, 2017, 01:56 UTC

1 40827U 10057AU  17232.08073512 -.00001120 +00000-0 -22242-1 0  9994
2 40827 020.3066 127.6434 7130138 315.4376 005.8443 02.26370379021094

AllMySatでCZ-3C DEBをリアルタイム追跡

Download on the App Store